This demonstration page uses our WeatherBlox Daily Observations layout. Learn more.

Left ArrowRight Arrow

Hourly Observations for October 21, 2021

Temp ( °F °C ) Dew Point ( °F °C ) Humidity (%) Winds ( mph kmh ) Pressure ( in mb ) Visibility ( mi km ) Precip ( " mm )
12:15 am 00:15 Clear 55 13 52 11 88 88 N N/A 30.10 1019 10 16 N/A
12:35 am 00:35 Clear 55 13 52 11 88 88 WSW 3 6 30.09 1019 10 16 N/A
12:55 am 00:55 Clear 54 12 52 11 94 94 W 5 7 30.09 1019 10 16 N/A
1:15 am 01:15 Clear 54 12 52 11 94 94 N N/A 30.09 1019 10 16 N/A
1:35 am 01:35 Clear 52 11 52 11 100 100 WSW 6 9 30.09 1019 10 16 N/A
1:55 am 01:55 Clear 52 11 52 11 100 100 W 3 6 30.09 1019 10 16 N/A
2:15 am 02:15 Clear 54 12 52 11 94 94 N N/A 30.09 1019 10 16 N/A
2:35 am 02:35 Clear 54 12 52 11 94 94 SSE 6 9 30.09 1019 10 16 N/A
2:55 am 02:55 Clear 52 11 50 10 94 94 S 3 6 30.09 1019 10 16 N/A
3:15 am 03:15 Clear 52 11 52 11 100 100 N N/A 30.09 1019 10 16 N/A
3:35 am 03:35 Clear 52 11 50 10 94 94 N N/A 30.09 1019 10 16 N/A
3:55 am 03:55 Clear 50 10 48 9 94 94 N N/A 30.09 1019 10 16 N/A
4:15 am 04:15 Clear 50 10 48 9 94 94 N N/A 30.10 1019 10 16 N/A
4:35 am 04:35 Clear 50 10 48 9 94 94 N N/A 30.09 1019 10 16 N/A
4:55 am 04:55 Clear 48 9 48 9 100 100 N N/A 30.09 1019 10 16 N/A
5:15 am 05:15 Clear 46 8 46 8 100 100 N N/A 30.09 1019 10 16 N/A
5:35 am 05:35 Clear 46 8 46 8 100 100 N N/A 30.09 1019 10 16 N/A
5:55 am 05:55 Clear 48 9 46 8 94 94 N N/A 30.10 1019 10 16 N/A
6:15 am 06:15 Clear 46 8 46 8 100 100 N N/A 30.10 1019 10 16 N/A
6:35 am 06:35 Clear 46 8 46 8 100 100 N N/A 30.10 1019 10 16 N/A
6:55 am 06:55 Clear 46 8 46 8 100 100 N N/A 30.10 1019 10 16 N/A
7:15 am 07:15 Clear 46 8 46 8 100 100 N N/A 30.11 1020 10 16 N/A
7:35 am 07:35 Sunny 45 7 45 7 100 100 N N/A 30.11 1020 10 16 N/A
7:55 am 07:55 Sunny 46 8 46 8 100 100 N N/A 30.10 1019 10 16 N/A
8:15 am 08:15 Sunny 46 8 46 8 100 100 N N/A 30.10 1019 10 16 N/A
8:35 am 08:35 Sunny 50 10 48 9 94 94 WNW 3 6 30.11 1020 10 16 N/A
8:55 am 08:55 Sunny 52 11 50 10 94 94 N N/A 30.09 1019 10 16 N/A
9:15 am 09:15 Sunny 55 13 52 11 88 88 N N/A 30.09 1019 10 16 N/A
9:35 am 09:35 Sunny 59 15 54 12 82 82 N N/A 30.09 1019 10 16 N/A
9:55 am 09:55 Sunny 61 16 55 13 83 83 N N/A 30.08 1019 10 16 N/A
10:15 am 10:15 Sunny 63 17 55 13 77 77 N N/A 30.08 1018 10 16 N/A
10:35 am 10:35 Sunny 66 19 55 13 68 68 N N/A 30.07 1018 10 16 N/A
10:55 am 10:55 Sunny 68 20 55 13 64 64 SSE 3 6 30.06 1018 10 16 N/A
11:15 am 11:15 Sunny 70 21 55 13 60 60 N N/A 30.05 1018 10 16 N/A
11:35 am 11:35 Sunny 70 21 55 13 60 60 N N/A 30.05 1018 10 16 N/A
11:55 am 11:55 Sunny 72 22 54 12 53 53 S 7 11 30.04 1017 10 16 N/A
12:15 pm 12:15 Sunny 73 23 52 11 47 47 SE 5 7 30.04 1017 10 16 N/A
12:35 pm 12:35 Sunny 73 23 52 11 47 47 S 6 9 30.02 1016 10 16 N/A
12:55 pm 12:55 Sunny 75 24 50 10 41 41 S 6 9 30.01 1016 10 16 N/A
1:15 pm 13:15 Sunny 75 24 50 10 41 41 S 6 9 29.99 1015 10 16 N/A
1:35 pm 13:35 Sunny 77 25 50 10 39 39 SW 7 11 29.97 1015 10 16 N/A
1:55 pm 13:55 Sunny 77 25 50 10 39 39 SW 6 9 29.95 1014 10 16 N/A
2:15 pm 14:15 Sunny 77 25 50 10 39 39 S 5 7 29.94 1014 10 16 N/A
2:35 pm 14:35 Sunny 79 26 50 10 37 37 SSW 9 15 29.93 1014 10 16 N/A
2:55 pm 14:55 Sunny 77 25 48 9 36 36 S 6 9 29.90 1013 10 16 N/A
3:15 pm 15:15 Sunny 79 26 48 9 34 34 S 6 9 29.89 1012 10 16 N/A
3:35 pm 15:35 Sunny 77 25 50 10 39 39 SSE 8 13 29.90 1013 10 16 N/A
3:55 pm 15:55 Sunny 79 26 50 10 37 37 S 10 17 29.89 1012 10 16 N/A
4:15 pm 16:15 Sunny 77 25 52 11 42 42 SSW 14 22 29.89 1012 10 16 N/A
4:35 pm 16:35 Sunny 77 25 52 11 42 42 SSW 13 20 29.89 1012 10 16 N/A
4:55 pm 16:55 Sunny 75 24 52 11 44 44 S 10 17 29.90 1012 10 16 N/A
5:15 pm 17:15 Sunny 75 24 52 11 44 44 SSW 8 13 29.89 1012 10 16 N/A
5:35 pm 17:35 Sunny 73 23 52 11 47 47 S 8 13 29.89 1012 10 16 N/A
5:55 pm 17:55 Sunny 73 23 52 11 47 47 S 8 13 29.89 1012 10 16 N/A
6:15 pm 18:15 Sunny 72 22 52 11 50 50 SSE 8 13 29.87 1011 10 16 N/A
6:35 pm 18:35 Clear 72 22 52 11 50 50 S 8 13 29.87 1011 10 16 N/A
6:55 pm 18:55 Clear 70 21 54 12 57 57 S 5 7 29.87 1012 10 16 N/A
7:15 pm 19:15 Clear 70 21 54 12 57 57 S 8 13 29.87 1012 10 16 N/A
7:35 pm 19:35 Clear 70 21 54 12 57 57 S 10 17 29.86 1011 10 16 N/A
7:55 pm 19:55 Clear 68 20 55 13 64 64 SSW 7 11 29.86 1011 10 16 N/A
8:15 pm 20:15 Clear 66 19 55 13 68 68 SSW 7 11 29.86 1011 10 16 N/A
8:35 pm 20:35 Clear 66 19 55 13 68 68 SSW 7 11 29.86 1011 10 16 N/A
8:55 pm 20:55 Clear 68 20 57 14 69 69 SSW 8 13 29.86 1011 10 16 N/A
9:15 pm 21:15 Clear 68 20 59 15 73 73 SSW 9 15 29.85 1011 10 16 N/A
9:35 pm 21:35 Clear 68 20 59 15 73 73 SSW 9 15 29.85 1011 10 16 N/A
9:55 pm 21:55 Clear 68 20 59 15 73 73 SSW 6 9 29.86 1011 10 16 N/A
10:15 pm 22:15 Mostly Cloudy 68 20 59 15 73 73 SSW 7 11 29.85 1011 10 16 N/A
10:35 pm 22:35 Mostly Cloudy 68 20 59 15 73 73 SSW 10 17 29.85 1011 10 16 N/A
10:55 pm 22:55 Clear 68 20 59 15 73 73 SSW 10 17 29.85 1011 10 16 N/A
11:15 pm 23:15 Partly Cloudy 68 20 59 15 73 73 SSW 9 15 29.85 1011 10 16 N/A
11:35 pm 23:35 Partly Cloudy 68 20 59 15 73 73 SSW 7 11 29.85 1011 10 16 N/A
11:55 pm 23:55 Clear 66 19 59 15 78 78 SW 3 6 29.84 1011 10 16 N/A

Powered by AerisWeather